Flag for China Weather past 2 weeks in Dalian, Liaoning, China

Now
81 °F

Fog.


Feels Like: 84 °F
Forecast: 75 / 81 °F
Wind: 3 mph from West

Location: Dalian Airport

Current Time: Aug 22, 2014 at 8:05:05 AM

Latest Report: Aug 22, 2014 at 7:30 AM


Visibility: 1 mi

Pressure: 29.80 "Hg

Humidity: 70%

Dew point: 70 °F

Location of DalianLocation

Historic Weather in Dalian — Graph

°F

Dalian temperature yesterday

Maximum temperature yesterday: 86 °F (at 1:30 PM)
Minimum temperature yesterday: 72 °F (at 2:00 AM)
Average temperature yesterday: 79 °F

Past Weeks' High & Low Weather Summary

 TemperatureHumidityPressure
High90 °F (Aug 12, 11:00 AM)89% (Aug 8, 11:00 PM)29.89 "Hg (Aug 8, 11:00 PM)
Low68 °F (Aug 8, 5:00 AM)27% (Aug 12, 1:30 PM)29.56 "Hg (Aug 11, 3:00 PM)
Average78 °F65%29.77 "Hg
* Reported Aug 7 7:00 AM — Aug 22 7:00 AM, Dalian, Weather by CustomWeather, © 2014

Note: Actual official high and low records may vary slightly from our data, if they occured in-between our weather recording intervals... More about our weather records

Advertising

Dalian weather history for previous 24 hours

 ConditionsComfort  
Time TempWeatherWind HumidityBarometerVisibility
7:00 AM
Aug 22
81 °FFog.1 mph66%29.80 "Hg1 mi
6:30 AM79 °FFog.3 mph70%29.80 "Hg1 mi
6:00 AM75 °FFog.1 mph74%29.80 "Hg1 mi
5:30 AM73 °FFog.No wind78%29.77 "Hg1 mi
5:00 AM75 °FFog.1 mph74%29.77 "Hg1 mi
4:30 AM75 °FFog.3 mph74%29.77 "Hg1 mi
4:00 AM73 °FFog.No wind78%29.77 "Hg1 mi
3:30 AM75 °FFog.No wind74%29.80 "Hg1 mi
3:00 AM75 °FFog.No wind78%29.80 "Hg1 mi
2:30 AM75 °FFog.1 mph74%29.80 "Hg1 mi
2:00 AM75 °FFog.3 mph74%29.80 "Hg1 mi
1:30 AM75 °FFog.3 mph78%29.80 "Hg1 mi
1:00 AM75 °FFog.1 mph78%29.80 "Hg1 mi
12:30 AM75 °FFog.3 mph83%29.80 "Hg1 mi
12:00 AM77 °FFog.1 mph74%29.80 "Hg1 mi
11:30 PM
Aug 21
77 °FFog.1 mph74%29.80 "Hg1 mi
11:00 PM77 °FFog.3 mph74%29.80 "Hg1 mi
10:30 PM77 °FFog.1 mph74%29.80 "Hg1 mi
10:00 PM77 °FFog.3 mph74%29.80 "Hg1 mi
9:30 PM77 °FFog.3 mph74%29.80 "Hg2 mi
9:00 PM79 °FFog.3 mph70%29.77 "Hg2 mi
8:30 PM79 °FFog.3 mph70%29.77 "Hg2 mi
8:00 PM81 °FFog.6 mph66%29.77 "Hg2 mi
7:30 PM81 °FFog.6 mph62%29.77 "Hg2 mi
7:00 PM81 °FFog.3 mph62%29.74 "Hg1 mi
6:30 PM82 °FFog.3 mph62%29.74 "Hg1 mi
6:00 PM82 °FFog.6 mph62%29.74 "Hg1 mi
5:30 PM82 °FFog.8 mph62%29.74 "Hg1 mi
5:00 PM84 °FFog.8 mph58%29.74 "Hg1 mi
4:30 PM84 °FFog.8 mph58%29.74 "Hg1 mi
4:00 PM86 °FFog.6 mph52%29.71 "Hg1 mi
3:30 PM86 °FFog.3 mph55%29.71 "Hg1 mi
3:00 PM86 °FFog.3 mph52%29.74 "Hg1 mi
2:30 PM86 °FFog.6 mph55%29.74 "Hg1 mi
2:00 PM84 °FFog.8 mph55%29.74 "Hg1 mi
1:30 PM86 °FFog.3 mph55%29.74 "Hg1 mi
1:00 PM84 °FFog.3 mph62%29.74 "Hg2 mi
12:30 PM84 °FFog.3 mph58%29.74 "Hg2 mi
12:00 PM84 °FFog.6 mph58%29.74 "Hg2 mi
11:30 AM84 °FFog.8 mph58%29.77 "Hg2 mi
11:00 AM84 °FFog.10 mph58%29.77 "Hg2 mi
10:30 AM84 °FFog.8 mph58%29.77 "Hg2 mi
10:00 AM82 °FFog.8 mph58%29.77 "Hg2 mi
9:30 AM84 °FFog.3 mph51%29.77 "Hg2 mi
9:00 AM82 °FFog.3 mph55%29.77 "Hg2 mi
8:30 AM79 °FFog.1 mph61%29.77 "Hg2 mi
Weather by CustomWeather, © 2014

See weather overviewHow to use our weather pages